Regional Weather Roundup
Issued by NWS Goodland, KS

Home | Current Version | Previous Version | Graphics & Text | Print | Product List | Glossary On
Versions: 1 2 3 4 5 6 7 8 9 10 11 12 13 14 15 16 17 18 19 20 21 22 23 24 25 26 27 28 29 30 31 32 33 34 35 36 37 38 39 40 41 42 43 44 45 46 47 48 49 50
000
ASUS43 KGLD 230208
RWRGLD

GOODLAND FORECAST AREA HOURLY WEATHER ROUNDUP
NATIONAL WEATHER SERVICE GOODLAND KS
800 PM MDT MON MAY 22 2017

...OFFICIAL OBSERVATIONS...

CITY           SKY/WX    TMP DP  RH WIND       PRES   REMARKS
GOODLAND KS    CLOUDY    50  47  89 NW15      30.08R
HILL CITY KS   PTCLDY    65  48  54 NW13      29.95R
IMPERIAL NEB   CLOUDY    52  40  63 N14G23    30.07R
MCCOOK NEB     CLOUDY    58  44  60 NW13      30.01R
AKRON CO       CLOUDY    46  40  79 N18       30.14R
BURLINGTON CO  LGT RAIN  50  45  83 N14       30.12R
LIMON CO       LGT RAIN  42  41  96 NW15      30.19R
$$

...UNOFFICIAL OBSERVATIONS...

CITY           SKY/WX    TMP DP  RH WIND       PRES   REMARKS
LENORA KS        N/A     62  32  32 MISG        N/A
NORTON KS      LGT RAIN  57  43  58 NW16G25   29.98R
SHARON SPRINGS   N/A     50  46  87 N17G29      N/A
TRENTON NEB      N/A     54  32  43 NW7         N/A
KIT CARSON CO    N/A     49  42  76 MISG        N/A
YUMA CO        FAIR      46  34  61 NW10      30.12R
$$




USA.gov is the U.S. government's official web portal to all federal, state and local government web resources and services.